TimeMDT,TemperatureF,Dew PointF,Humidity,Sea Level PressureIn,VisibilityMPH,Wind Direction,Wind SpeedMPH,Gust SpeedMPH,PrecipitationIn,Events,Conditions,WindDirDegrees,DateUTC
12:01 AM,60.8,53.6,77,30.02,7.0,East,15.0,25.3,0.00,Rain-Thunderstorm,Light Thunderstorms and Rain,80,2013-06-15 06:01:00
12:11 AM,60.8,53.6,77,30.05,10.0,ENE,9.2,-,0.00,Thunderstorm,Overcast,70,2013-06-15 06:11:00
12:32 AM,59.0,53.6,82,30.04,10.0,NE,15.0,-,0.00,,Overcast,50,2013-06-15 06:32:00
12:53 AM,59.0,54.0,83,29.96,10.0,ENE,16.1,26.5,0.00,,Scattered Clouds,60,2013-06-15 06:53:00
1:53 AM,59.0,54.0,83,29.97,10.0,NE,8.1,17.3,N/A,,Partly Cloudy,50,2013-06-15 07:53:00
2:53 AM,57.0,54.0,89,29.97,10.0,Calm,Calm,-,N/A,,Clear,0,2013-06-15 08:53:00
3:53 AM,54.0,52.0,93,29.97,10.0,NNW,3.5,-,N/A,,Clear,340,2013-06-15 09:53:00
4:53 AM,52.0,50.0,93,29.99,10.0,NW,3.5,-,N/A,,Clear,310,2013-06-15 10:53:00
5:53 AM,51.1,48.9,92,30.02,10.0,West,4.6,-,N/A,,Clear,280,2013-06-15 11:53:00
6:53 AM,55.9,50.0,80,30.04,10.0,West,3.5,-,N/A,,Mostly Cloudy,280,2013-06-15 12:53:00
7:53 AM,60.1,51.1,72,30.05,10.0,Calm,Calm,-,N/A,,Clear,0,2013-06-15 13:53:00
8:53 AM,63.0,46.9,56,30.06,10.0,Calm,Calm,-,N/A,,Clear,0,2013-06-15 14:53:00
9:53 AM,66.0,46.9,50,30.04,10.0,ENE,5.8,-,N/A,,Clear,60,2013-06-15 15:53:00
10:53 AM,69.1,50.0,51,30.03,10.0,ENE,3.5,-,N/A,,Clear,60,2013-06-15 16:53:00
11:53 AM,72.0,50.0,46,30.03,10.0,East,6.9,-,N/A,,Clear,90,2013-06-15 17:53:00
12:53 PM,72.0,48.9,44,30.02,10.0,ENE,6.9,-,N/A,,Clear,60,2013-06-15 18:53:00
1:53 PM,73.9,50.0,43,30.01,10.0,ESE,9.2,-,N/A,,Clear,120,2013-06-15 19:53:00
2:53 PM,75.0,51.1,43,29.99,10.0,ENE,8.1,-,N/A,,Clear,60,2013-06-15 20:53:00
3:53 PM,75.9,51.1,42,29.98,10.0,ESE,6.9,-,N/A,,Clear,110,2013-06-15 21:53:00
4:53 PM,77.0,50.0,39,29.96,10.0,SE,8.1,-,N/A,,Clear,130,2013-06-15 22:53:00
5:53 PM,75.9,50.0,40,29.96,10.0,ESE,8.1,-,N/A,,Clear,120,2013-06-15 23:53:00
6:53 PM,75.0,52.0,44,29.95,10.0,ENE,5.8,-,N/A,,Clear,70,2013-06-16 00:53:00
7:53 PM,70.0,55.9,61,29.96,10.0,East,6.9,-,N/A,,Clear,80,2013-06-16 01:53:00
8:53 PM,64.9,55.9,73,29.96,10.0,ESE,5.8,-,N/A,,Clear,120,2013-06-16 02:53:00
9:53 PM,61.0,54.0,78,29.98,10.0,Calm,Calm,-,N/A,,Clear,0,2013-06-16 03:53:00
10:53 PM,57.9,53.1,84,29.98,10.0,SSW,3.5,-,N/A,,Clear,200,2013-06-16 04:53:00
11:53 PM,57.9,52.0,81,29.98,10.0,Calm,Calm,-,N/A,,Clear,0,2013-06-16 05:53:00